Tracking 32139 objects as of 14-Nov-2025
HD Live streaming from Space Station
objects crossing your sky now

IRIDIUM 33 DEB

Track IRIDIUM 33 DEB now!
10-day predictions


NORAD ID: 38241
Int'l Code: 1997-051ZR
Perigee: 714.2 km
Apogee: 721.3 km
Inclination: 86.3 °
Period: 99.0 minutes
Semi major axis: 7088 km
RCS: 0.0216 m2 (small)
Launch date: September 14, 1997
Source: United States (US)
Launch site: TYURATAM MISSILE AND SPACE COMPLEX (TTMTR)

Note: This is SATELLITE DEBRIS
Your satellite tracking list
Your tracking list is empty




NASA's NSSDC Master Catalog

Two Line Element Set (TLE):
1 38241U 97051ZR  25317.40692779  .00009471  00000-0  22120-2 0  9992
2 38241  86.3254   3.5347 0004958 136.5516 223.6083 14.54613904597746
Source of the keplerian elements: AFSPC